Location: Pulvis Stellarum Observatory
(41.6962°N, 71.4263°W)
Time: 04:49:11
(UTC-04:00)

Daily predictions for brighter satellites

Satellite Brightness Start Highest point End
(mag) Time Altitude Azimuth Time Altitude Azimuth Time Altitude Azimuth
ATLAS 2AS CENTAUR R/B 4.2 02:12:51 37° NE 02:12:51 37° NE 02:17:33 10° NE
Cosmos 2219 Rocket 4.3 02:58:24 10° N 03:02:53 23° NE 03:07:20 10° ESE
CZ-2D R/B 3.8 03:06:41 10° NNE 03:09:27 30° NE 03:09:27 30° NE
SL-16 R/B 3.6 03:17:52 37° N 03:17:52 37° N 03:21:28 10° N
Lacrosse 5 rocket 3.9 03:25:43 22° NE 03:25:43 22° NE 03:27:24 10° NE
ARIANE 5 R/B 4.2 03:17:46 10° NNE 03:20:07 28° NNE 03:20:07 28° NNE
Cosmos 2333 Rocket 3.9 03:30:16 10° N 03:35:20 31° NE 03:40:21 10° ESE
CZ-4C R/B 2.7 03:33:12 10° NW 03:40:28 88° S 03:48:15 10° SSE
Cosmos 1821 Rocket 4.1 03:34:25 10° N 03:40:48 72° E 03:41:03 71° E
Lacrosse 5 3.8 03:41:14 21° ESE 03:41:14 21° ESE 03:44:54 10° ENE
Resurs 1-4 Rocket 3.1 03:39:31 10° NNE 03:42:57 41° N 03:42:57 41° N
Cosmos 1934 Rocket 4.3 03:40:31 10° N 03:46:48 65° E 03:48:43 44° SE
Meteor 1-12 Rocket 4.4 03:46:51 10° N 03:52:14 72° NNE 03:52:14 72° NNE
ATLAS 2AS CENTAUR R/B 3.7 04:00:18 37° NW 04:01:07 38° NW 04:08:37 10° NNE
CZ-4B R/B 4.3 03:57:40 10° NNE 04:02:44 40° E 04:06:01 20° SSE
Cosmos 2237 Rocket 3.3 04:00:18 10° NNW 04:05:41 43° ENE 04:11:00 10° SE
MOZ.5/SAFIR/RUBIN 5/SL-8 3.9 04:10:38 72° ENE 04:10:38 72° ENE 04:15:16 10° N
CZ-2C R/B 4.3 04:08:42 26° SE 04:11:03 56° ENE 04:15:35 10° N
Gbstr 26 Del rocket 4.3 04:08:37 37° NW 04:11:57 87° NE 04:20:06 10° SE
Cosmos 968 Rocket 3.8 04:16:28 51° NNW 04:16:28 51° NNW 04:20:41 10° NNE
Meteor 1-18 Rocket 4.3 04:16:35 61° WNW 04:16:35 61° WNW 04:22:04 10° N
Okean O Rocket 1.9 04:12:12 10° NNE 04:16:36 64° ESE 04:16:41 64° ESE
Cosmos 2219 3.6 04:18:02 46° NW 04:18:02 46° NW 04:22:53 10° NNE
Cosmos 1980 4.2 04:13:18 10° NNW 04:18:55 59° ENE 04:24:31 10° SE
ATLAS 5 CENTAUR R/B 3.2 04:13:49 10° NNW 04:19:39 51° NE 04:25:53 10° SE
MOS 1-B 4.2 04:15:17 10° N 04:21:01 65° WNW 04:21:22 63° W
Tiangong 1 3.7 04:22:44 18° ESE 04:22:44 18° ESE 04:23:48 10° E
Cosmos 923 Rocket 4.3 04:16:57 10° NNW 04:22:18 67° ENE 04:27:36 10° SSE
SL-16 R/B 4.2 04:18:39 10° N 04:23:31 28° NE 04:28:20 10° ESE
Cosmos 1025 Rocket 4.2 04:22:16 20° SSE 04:24:54 41° E 04:28:59 10° NNE
Cosmos 2344 3.6 04:26:23 44° WSW 04:29:11 72° NW 04:38:02 10° NNE
Cosmos 1461 4.3 04:31:20 29° NNW 04:31:20 29° NNW 04:34:18 10° NNE
NOSS 3-2 (A) 4.0 04:23:02 10° NW 04:30:35 86° NE 04:38:41 10° SE
USA 238 DEB 4.0 04:35:03 43° WSW 04:35:03 43° WSW 04:41:29 10° S
USA 238 3.9 04:34:56 44° WSW 04:35:02 44° WSW 04:41:35 10° S
BREEZE-M DEB (TANK) 3.3 04:36:06 48° SSW 04:37:04 62° SSE 04:39:53 10° ENE
Cosmos 1743 2.8 04:33:32 10° N 04:37:22 71° E 04:39:18 27° SSE
Cosmos 1607 4.4 04:38:47 38° SSW 04:38:47 38° SSW 04:43:13 10° S
Cosmos 2227 Rocket 2.3 04:35:18 30° S 04:38:13 74° ESE 04:43:53 10° NNE
Delta 2 Rocket 4.5 04:40:14 28° SSE 04:40:14 28° SSE 04:42:44 10° ESE
PSLV R/B 4.0 04:37:47 10° N 04:41:29 58° NW 04:41:29 58° NW
Okean 1-7 Rocket 3.4 04:41:51 66° W 04:42:02 67° W 04:46:25 10° N
Cosmos 773 Rocket 3.9 04:40:00 10° NNW 04:45:08 57° WSW 04:50:11 10° S
ADEOS II 3.0 04:40:49 10° NNE 04:45:55 48° E 04:50:59 10° S
CZ-4B R/B 3.0 04:41:40 10° N 04:46:02 84° WNW 04:47:43 38° SSW
Cosmos 2219 Rocket 2.2 04:41:39 10° NNW 04:47:14 58° WSW 04:52:47 10° S
COS B Rocket 4.2 04:48:04 26° ENE 04:48:04 26° ENE 04:49:55 10° NNE
Cosmos 2297 Rocket 2.5 04:43:32 16° S 04:48:00 64° ESE 04:53:36 10° NNE
Meteor 2-8 Rocket 4.4 04:48:13 28° SSW 04:51:25 60° W 04:57:29 10° N
CZ-2D R/B 3.5 04:47:33 10° NNW 04:50:46 21° NW 04:50:46 21° NW
Cosmos 1892 Rocket 4.4 04:48:43 10° S 04:53:03 53° E 04:57:25 10° NNE
ASTRO F (AKARI) 4.4 04:52:59 10° SSE 04:56:05 71° ENE 04:59:17 10° N
Cosmos 1727 Rocket 3.9 04:51:31 17° SSW 04:56:24 66° W 05:02:41 10° N
CZ-4B DEB 4.1 04:51:57 10° N 04:57:25 74° WNW 05:01:53 16° SSW
Cosmos 1777 Rocket 4.4 04:57:51 37° W 04:59:05 43° WNW 05:04:07 10° N
SL-16 R/B 4.5 05:02:59 11° NW 05:02:59 11° NW 05:03:23 10° NW
ARIANE 5 R/B 4.4 04:58:47 10° NNW 05:00:27 13° NW 05:00:27 13° NW
Okean 2 3.9 04:57:47 10° S 05:01:52 60° E 05:05:58 10° NNE
Lacrosse 5 rocket 3.1 05:01:27 21° NW 05:02:34 23° NNW 05:06:11 10° NNE
PAYLOAD B 4.3 04:58:13 10° N 05:03:36 58° WNW 05:07:22 20° SW
PSLV R/B 3.6 04:59:48 10° NNE 05:04:11 83° ESE 05:08:29 10° S
ISS -1.0 05:07:46 13° S 05:07:46 13° S 05:08:23 10° S
Cosmos 220 Rocket 3.8 05:04:15 28° SSW 05:06:24 74° WNW 05:10:39 10° NNE
Cosmos 2173 Rocket 4.1 05:00:27 10° N 05:06:34 75° E 05:12:40 10° SSE
NOSS 3-2 (C) 3.9 04:59:38 10° NW 05:07:10 73° WSW 05:15:14 10° SSE
CENTAUR R/B 4.0 05:05:08 10° NNW 05:12:35 49° NE 05:20:33 10° ESE
Meteor 1-31 Rocket 4.0 05:09:53 10° NNE 05:13:37 43° E 05:17:21 10° S
Cosmos 2112 Rocket 4.0 05:10:31 10° NNW 05:15:46 63° WSW 05:20:57 10° S
Okean-O 2.6 05:11:37 10° NNE 05:16:05 88° ESE 05:20:31 10° SSW
Cosmos 2082 3.7 05:12:43 19° SW 05:16:39 59° WNW 05:22:13 10° NNE
Cosmos 1459 Rocket 4.0 05:11:00 10° N 05:17:25 88° W 05:23:44 10° S
ADEOS Rocket 3.3 05:12:17 10° N 05:19:33 68° WNW 05:26:04 10° SSW
Cosmos 2333 Rocket 2.6 05:14:23 10° NW 05:19:41 40° WSW 05:24:55 10° S
Cosmos 1680 Rocket 3.7 05:15:59 10° NNW 05:21:04 48° WSW 05:26:04 10° S
Meteor 1-19 Rocket 4.4 05:16:34 10° SSW 05:22:04 50° WNW 05:27:32 10° N
Cosmos 2228 3.5 05:18:09 10° N 05:22:33 65° E 05:26:53 10° SSE
Lacrosse 5 1.9 05:20:27 22° WSW 05:23:42 68° NW 05:28:46 10° NE
Resurs 1-4 Rocket 4.0 05:22:05 10° NW 05:23:50 12° WNW 05:24:02 12° WNW
EXPRESS MD2 4.3 05:22:09 14° NW 05:24:48 50° NNE 05:30:44 10° ESE
CZ-4C R/B 4.0 05:26:05 17° W 05:28:20 20° WSW 05:33:31 10° SSW
Cosmos 2058 Rocket 2.9 05:24:55 10° NNW 05:29:16 75° W 05:33:36 10° S
NOSS 3-4 (A) 3.9 05:26:20 18° WSW 05:30:58 49° NW 05:37:21 10° NNE
NOSS 3-4 (C) 3.8 05:26:24 18° WSW 05:31:05 50° NW 05:37:27 10° NNE
OTV 4 1.7 05:33:36 20° SW 05:34:21 23° SSW 05:36:36 10° SE
Cosmos 2298 Rocket 4.0 05:30:57 10° SSW 05:36:15 87° WNW 05:41:36 10° NNE
Thor Agena Rocket 4.2 05:37:26 10° SSW 05:42:13 34° W 05:47:01 10° NNW
BREEZE-M DEB (TANK) 3.7 05:27:50 10° WNW 05:42:15 81° NNE 05:46:04 10° ESE
CZ-4B R/B 4.1 05:38:37 10° N 05:43:07 28° WNW 05:47:42 10° WSW
Meteor 1-23 Rocket 4.4 05:38:46 10° SSW 05:44:10 49° WNW 05:49:41 10° N
COSMO-SKYMED 1 3.4 05:40:27 10° SSE 05:44:41 55° ENE 05:48:57 10° N
Aureole 2 Rocket 2.6 05:41:10 10° NNW 05:44:45 73° ENE 05:47:58 10° SSE
Meteor 2-4 Rocket 4.1 05:39:55 10° SSW 05:45:26 45° WNW 05:51:07 10° N
Cosmos 1515 4.3 05:44:06 10° S 05:47:52 60° E 05:51:39 10° NNE
Cosmos 2237 Rocket 3.0 05:44:48 10° NW 05:49:29 27° WSW 05:54:09 10° SSW
RESURS DK-1 3.1 05:46:43 12° WSW 05:50:11 33° WNW 05:53:58 10° N
Cosmos 1666 3.5 05:46:48 10° NNW 05:50:12 29° W 05:53:33 10° SSW
Cosmos 292 Rocket 4.1 05:46:28 10° NNW 05:51:06 45° WSW 05:55:42 10° S
Cosmos 2150 Rocket 3.9 05:46:26 10° SSW 05:51:34 73° WNW 05:56:44 10° NNE
Okean O Rocket 3.5 05:50:22 10° NW 05:52:25 13° WNW 05:54:08 11° W
SL-24 R/B 4.3 05:49:17 10° NNE 05:53:49 72° E 05:57:47 10° S
Cosmos 2098 Rocket 2.9 05:50:22 10° NNW 05:54:00 64° W 05:58:35 10° S
Tiangong 1 0.9 05:54:38 13° W 05:57:19 83° NNW 06:00:23 10° E
Cosmos 2061 Rocket 4.3 05:51:31 10° NNW 05:57:26 45° W 06:03:24 10° SSW
Meteor 2-15 4.4 05:52:13 10° SSW 05:58:14 66° W 06:04:16 10° N
ATLAS 5 CENTAUR R/B 3.1 05:58:52 10° NW 06:04:14 32° WSW 06:09:54 10° S
Cosmos 1802 Rocket 4.3 05:58:51 10° NNW 06:04:39 43° W 06:10:22 10° SSW
BREEZE M DEB (TANK) 4.4 06:01:48 10° WNW 06:05:30 43° N 06:17:34 10° ENE
NOSS 8 (A) 4.5 06:02:29 10° SSW 06:05:48 82° SE 06:09:18 10° NE
DELTA 2 R/B (1) 4.1 06:00:36 10° WSW 06:06:02 56° SSE 06:11:29 10° E
Cosmos 1626 Rocket 3.5 06:02:38 10° SSW 06:07:00 67° W 06:11:22 10° N
Cosmos 1346 Rocket 4.1 06:04:01 10° WSW 06:07:01 20° WNW 06:10:03 10° NNW
CZ-4B R/B 4.2 06:03:20 10° N 06:07:09 43° WNW 06:10:46 10° SW
Ariane Rocket 3.2 06:02:09 10° NNE 06:07:17 80° ESE 06:12:23 10° S
SL-16 R/B 2.5 06:02:25 10° NW 06:07:48 45° WSW 06:13:09 10° S
Cosmos 1340 4.0 06:04:25 10° SSE 06:08:02 45° E 06:11:41 10° NNE
Cosmos 2233 Rocket 4.4 06:03:22 10° N 06:09:40 71° E 06:15:52 10° SSE
Cosmos 990 Rocket 4.0 06:05:31 10° SSW 06:10:47 86° WNW 06:16:05 10° NNE
